User: anonymous   Login
Location: Unspecified
(0.0000°N, 0.0000°E)
Time: 10:52:10
(UTC+00:00)
Language:

PLEIADES HR1 - Orbit

View from above orbital plane
View from above orbital plane
View from above satellite
View from above satellite

Ground track
Ground track

The orbit data is extracted from the following two-line orbital elements,

1 38012U 11076F   17017.14496178 -.00000008  00000-0  80970-5 0  9993
2 38012  98.1795  94.4122 0001528  75.8344 284.3038 14.58568399270841
Epoch (UTC): 17 January 2017 03:28:44
Eccentricity: 0.0001528
inclination: 98.1795°
perigee height: 697 km
apogee height: 699 km
right ascension of ascending node: 94.4122°
argument of perigee: 75.8344°
revolutions per day: 14.58568399
mean anomaly at epoch: 284.3038°
orbit number at epoch: 27084

The dashed part of the orbit path shows where the satellite is in the earth's shadow,  

DLR